Airfield :
LOGIN :

Register | Disclaimer

   EN    FR    IT 

 










Legend :    VFR   Marginal VFR   IFR   Intensive IFR   Very Intensive IFR
Visi :
Ceiling :
>= 8 km
>= 3000ft
5 to 8 km
1000 to 3000 ft
1500m to 5 km
500 to 1000 ft
800 to 1500m
200 to 500 ft
< 800m
< 200 ft
Symbols :   Thunderstorms  Fog  Heavy snow  Heavy precipitations  Wind > 20 kt
SIGMETs :     Misc.  Thunderstorms  Icing  Turbulence  Mountain Waves  Volcanic Ashes







- Airport Elevation : 147 ft
- IATA code : DUS


EDDL - Düsseldorf Int.

CURRENT METAR :
  • 210350Z 05005KT CAVOK M01/M02 Q1012 NOSIG

EXPIRED METARs :
  • 210320Z 03005KT CAVOK 00/M01 Q1012 NOSIG
  • 210250Z 03004KT CAVOK 01/M01 Q1012 NOSIG
  • 210220Z 04004KT CAVOK 01/M01 Q1011 NOSIG
  • 210150Z 05006KT 030V090 CAVOK 02/M01 Q1011 NOSIG
  • 210120Z 09007KT CAVOK 01/M02 Q1011 NOSIG

TAF AMD TAF EDDL
Valid from the 21 at 02:00 until the 22 at 06:00 UTC


210250Z 2102/2206 08005KT CAVOK
No reported NOTAMs for that airfield.



MET'MAP, your aeronautical weather chart ! - Copyright ORBIFLY December 2007 - Disclaimer

ORBIFLY MET'MAP TEAM :

Programming & Development : Alexandra Zaïnal
Concept & Development : Baudouin d'Aumeries
Co-Development & Prog : Marc-Olivier Méhu
Technical & hardware support : Manuel Goepfert

Contact : metmap@orbifly.com




SOURCES & CREDITS :

   NOAA